星链-35244(STARLINK-35244)

导读

STARLINK-35244是美国于2025年9月29日发射的星链卫星,归属于SpaceX公司的星链互联网星座项目。星链项目旨在构建全球卫星互联网星座,为全球偏远地区、海洋航空等场景提供高速宽带网络服务,该卫星入轨后将助力提升星链系统的全球覆盖密度与服务能力。

基本信息
目录编号:
65829
目录名称:
STARLINK-35244
国际标识:
2025-221G
轨道中心:
EARTH
卫星名称:
星链-35244
卫星全名:
星链-35244(STARLINK-35244)
卫星状态:
在轨 (已飞行340 天)
发射日期:
2025-09-29 UTC
国别 :
美国 (US)
星等 :
--
轨道信息
数据来源 国际轨道数据
星历时间: 2026-09-04T03:49:55+0800
11小时前
查看轨道信息
半长轴: 6848.877km
偏心率: 0.0001104
轨道倾角: 53.160°
近地点辐角 72.746°
升交点赤经 342.619°
平近点角 287.367°
近地点: 469.983km
远地点: 471.497km
周期: 94.013分钟
每日圈数: 15.317003
详细信息
固有亮度:
5
最大亮度:
2.5
卫星平台:
Starlink V1.0
覆盖范围:
全球
运营商:
太空探索技术公司
运营商所在国:
美国
制造商(研发单位):
太空探索技术公司
制造商所在国:
美国
使用方式:
暂无
卫星简介
Starlink 计划是 SpaceX 推出的全球卫星互联网项目,通过发射低轨道卫星,为全球尤其是偏远地区提供高速、低延迟的互联网服务。自 2019 年起,Starlink 已部署数千颗卫星,旨在缩小全球数字鸿沟,推动互联网普及。该项目还为军事、航空等行业提供通信支持,带来广泛经济效益。
2D轨道图
3D轨道图
轨道高度分析图
轨道倾角分析图
轨道综合分析图
查看轨道综合分析图
交会数据列表
事件ID 空间交会对象 最接近时刻(TCA) 交会距离 交会风险概率(CRP) 交会风险指数(CRI) 操作
CDM_260903-082306-487906-582922
OBJECT D (64879)
2026-09-03T
08:23:27+0000
0.229 km
中距离
6.802594E-4 高风险 0.92
CDM_260901-123006-487906-582922
OBJECT D (64879)
2026-09-01T
12:30:13+0000
1.116 km
极远距离
1.780583E-5 中风险 0.6
CDM_260903-210406-582906-943021
2026-09-03T
21:04:45+0000
2.240 km
极远距离
2.054808E-6 低风险 0.41
CDM_260903-215506-582906-965221
2026-09-03T
21:55:18+0000
2.242 km
极远距离
1.531945E-6 低风险 0.39
CDM_260903-170806-582906-921922
2026-09-03T
17:08:26+0000
2.777 km
极远距离
1.213455E-6 低风险 0.37
CDM_260904-232906-582906-840322
2026-09-04T
23:29:58+0000
2.644 km
极远距离
1.155569E-6 低风险 0.36
CDM_260904-103206-582906-760422
2026-09-04T
10:32:36+0000
2.972 km
极远距离
8.636066E-7 极低风险 0.34